[[{"header":{"parameterUnit":"m.s-1","parameterCategory":1,"la1":30.2991,"la2":30.254,"lo1":-89.0895,"lo2":-89.0444,"dy":0.0017,"dx":0.0017,"nx":28,"ny":28,"refTime":"2023-11-10T03:00:00:Z","depth":0,"parameterNumber":2,"parameterNumberName":"U-component_of_WINDS"},"data":[0,0,0,0,0,0,0,0,0,0,0,0,0,0,0,0,0,0,0,0,0,0,0,0,0,0,0,0,0,0,0,0,0,0,0,0,0,0,0,0,0,0,0,0,0,0,0,0,0,0,0,0,0,0,0,0,0,0,-2.6197,-2.6197,0,-2.6175,-2.6175,-2.6175,-2.6113,-2.6111,-2.611,-2.6109,-2.6087,-2.6088,-2.6089,0,0,0,0,0,0,0,0,0,0,0,0,0,-2.6188,-2.6189,-2.6197,-2.6197,-2.6197,-2.6175,-2.6175,-2.6175,-2.6113,-2.6111,-2.611,-2.6108,-2.6087,-2.6088,-2.6089,0,0,0,0,0,0,0,0,0,0,0,0,0,-2.6182,-2.6189,-2.6197,-2.6163,-2.616,-2.6176,-2.6175,-2.6175,-2.6113,-2.6111,-2.6109,-2.6107,-2.6087,-2.6088,-2.6089,-2.6136,0,0,-2.6092,-2.6092,0,0,0,0,0,0,0,0,-2.6182,-2.6182,-2.6169,-2.6166,-2.6162,-2.6145,-2.6164,-2.6162,-2.6114,-2.6131,-2.6109,-2.6106,-2.6108,-2.6107,-2.6108,-2.6135,-2.6134,-2.6092,-2.6093,-2.6093,-2.6094,0,0,0,0,0,0,0,-2.6183,-2.6183,-2.6189,-2.6169,-2.6165,-2.615,-2.6147,-2.6163,-2.6131,-2.613,-2.6125,-2.6123,-2.6106,-2.6107,-2.6107,-2.6133,-2.6092,-2.6093,-2.6094,-2.6094,-2.6199,-2.6201,0,0,0,0,0,0,-2.6188,-2.6184,-2.6189,-2.6188,-2.6167,-2.6152,-2.6148,-2.6152,-2.6131,-2.6126,-2.6125,-2.612,-2.6106,-2.6106,-2.6106,-2.6159,-2.6093,-2.6094,-2.6095,-2.6197,-2.6199,-2.6202,0,0,0,0,0,0,-2.6188,-2.6189,-2.619,-2.6185,-2.6184,-2.6154,-2.6159,-2.6153,-2.6154,-2.6127,-2.6122,-2.6131,-2.6104,-2.6104,-2.6129,-2.6157,-2.6095,-2.6096,-2.6194,-2.6198,-2.6201,-2.6266,0,0,0,0,0,0,-2.6188,-2.6189,-2.6206,-2.6185,-2.6184,-2.6213,-2.6161,-2.6154,-2.6156,-2.6149,-2.6132,-2.6127,-2.6103,-2.6128,-2.613,-2.6158,-2.6096,-2.6192,-2.6196,-2.62,-2.6262,-2.6272,-2.628,0,0,0,0,0,-2.6188,-2.6225,-2.6207,-2.6208,-2.6204,-2.6215,-2.6214,-2.6185,-2.6158,-2.6175,-2.6159,-2.6128,-2.6155,-2.6131,-2.6133,-2.6161,-2.619,-2.6195,-2.6199,-2.6257,-2.627,-2.628,0,0,0,0,0,0,-2.625,-2.6222,-2.6201,-2.6233,-2.6227,-2.6204,-2.6225,-2.6199,-2.62,-2.6194,-2.6159,-2.6155,-2.6185,-2.6176,-2.615,-2.6206,-2.6167,-2.6173,-2.6211,-2.6222,-2.6231,-2.6232,-2.6097,0,0,0,0,0,-2.6268,-2.6278,-2.6253,-2.6284,-2.6282,-2.6254,-2.6258,-2.6236,-2.6228,-2.6225,-2.621,-2.6204,-2.6211,-2.6216,-2.6221,-2.6261,-2.6256,-2.6282,-2.6291,-2.6299,-2.6303,-2.6324,-2.6335,-2.6218,-2.6218,-2.6218,0,0,-2.6304,-2.629,-2.6298,-2.6296,-2.6289,-2.6301,-2.6252,-2.6267,-2.6276,-2.6227,-2.6249,-2.6239,-2.623,-2.6262,-2.6276,-2.6255,-2.6335,-2.6305,-2.6311,-2.6312,-2.633,-2.6341,-2.6351,-2.6221,-2.6221,-2.622,0,0,-2.6376,-2.6366,-2.6391,-2.6385,-2.6374,-2.6356,-2.6362,-2.6344,-2.6335,-2.6356,-2.6321,-2.6331,-2.6344,-2.6339,-2.6338,-2.6411,-2.6383,-2.6414,-2.6462,-2.6482,-2.6492,-2.65,-2.6525,-2.6535,-2.6419,-2.6419,-2.6419,0,-2.6422,-2.6438,-2.6407,-2.6424,-2.6424,-2.6382,-2.6407,-2.6403,-2.6395,-2.6396,-2.6374,-2.639,-2.6381,-2.6412,-2.643,-2.6431,-2.6437,-2.6415,-2.6493,-2.65,-2.6507,-2.6531,-2.6541,-2.6423,-2.6423,-2.6422,-2.6422,0,-2.6495,-2.6507,-2.6529,-2.6522,-2.6525,-2.6546,-2.6519,-2.6526,-2.6505,-2.649,-2.6513,-2.6501,-2.6503,-2.651,-2.6489,-2.6538,-2.6526,-2.6499,-2.6459,-2.6523,-2.6545,-2.6554,-2.6428,-2.6427,-2.6426,-2.6425,0,0,-2.6603,-2.658,-2.6589,-2.6585,-2.6572,-2.6581,-2.6601,-2.6603,-2.661,-2.6607,-2.6622,-2.6635,-2.6611,-2.661,-2.6589,-2.6607,-2.6666,-2.6578,-2.6577,-2.6594,-2.6719,-2.6739,-2.675,-2.6648,-2.665,-2.6651,-2.672,0,-2.667,-2.6702,-2.6676,-2.6713,-2.6724,-2.6685,-2.6703,-2.6697,-2.6684,-2.6692,-2.6678,-2.6687,-2.6654,-2.6653,-2.667,-2.6655,-2.669,-2.665,-2.6662,-2.6663,-2.6664,-2.6761,-2.6782,-2.6847,-2.6728,-2.673,-2.6731,0,-2.6752,-2.6753,-2.6791,-2.6776,-2.6779,-2.6796,-2.6796,-2.6804,-2.6798,-2.6787,-2.6787,-2.6762,-2.6781,-2.6744,-2.677,-2.6744,-2.6748,-2.6741,-2.6743,-2.6742,-2.67,-2.6762,-2.6867,-2.6877,-2.6744,-2.6743,-2.6742,0,-2.6827,-2.6837,-2.6861,-2.686,-2.6843,-2.6855,-2.6849,-2.684,-2.6844,-2.6845,-2.6846,-2.685,-2.6852,-2.6856,-2.6832,-2.6807,-2.6862,-2.6822,-2.6854,-2.6854,-2.6866,-2.6865,-2.6972,-2.6871,-2.687,-2.687,-2.687,0,-2.6904,-2.6928,-2.6894,-2.6909,-2.6936,-2.6907,-2.6935,-2.6925,-2.6918,-2.693,-2.6898,-2.6911,-2.688,-2.689,-2.6872,-2.6897,-2.6898,-2.689,-2.6885,-2.6892,-2.6893,-2.6893,-2.6888,-2.6873,-2.6872,-2.6872,-2.6871,0,-2.699,-2.6968,-2.6992,-2.6975,-2.6971,-2.6992,-2.6977,-2.6991,-2.6976,-2.6993,-2.6996,-2.6973,-2.6983,-2.6961,-2.6968,-2.6956,-2.6991,-2.6979,-2.6993,-2.6989,-2.7022,-2.7019,-2.7132,-2.7145,-2.7036,-2.7037,-2.7038,0,-2.704,-2.7058,-2.7043,-2.7049,-2.7045,-2.7055,-2.7058,-2.7031,-2.7036,-2.7031,-2.7045,-2.7053,-2.7057,-2.7076,-2.706,-2.7066,-2.7053,-2.7093,-2.7054,-2.7061,-2.7053,-2.7052,-2.7054,-2.71,-2.7102,-2.7103,-2.7104,0,-2.7131,-2.7119,-2.7125,-2.7128,-2.7133,-2.7134,-2.7133,-2.714,-2.7111,-2.7119,-2.7129,-2.7133,-2.7141,-2.7149,-2.7151,-2.7145,-2.712,-2.7116,-2.7124,-2.7131,-2.7138,-2.7134,-2.7014,-2.7113,-2.7112,-2.7112,-2.7111,-2.7111,-2.72,-2.7214,-2.7206,-2.7214,-2.7211,-2.7211,-2.7223,-2.721,-2.7218,-2.7222,-2.7206,-2.722,-2.7214,-2.7215,-2.7212,-2.7223,-2.7205,-2.7216,-2.7219,-2.7222,-2.7227,-2.7138,-2.7223,-2.7223,-2.7223,-2.7223,-2.7222,0,-2.7288,-2.7282,-2.729,-2.7289,-2.7296,-2.7272,-2.727,-2.7277,-2.729,-2.7286,-2.7292,-2.7304,-2.7312,-2.7298,-2.7304,-2.7316,-2.7305,-2.7319,-2.7317,-2.7316,-2.7242,-2.7235,-2.7328,-2.7328,-2.7328,-2.7328,-2.7328,-2.7328,-2.7335,-2.7359,-2.7347,-2.7369,-2.7362,-2.7375,-2.7376,-2.7376,-2.7374,-2.7389,-2.7395,-2.7386,-2.7379,-2.7384,-2.7391,-2.7387,-2.7391,-2.7408,-2.74,-2.7331,-2.7321,-2.7311,-2.7304,-2.741,-2.741,-2.7473,-2.7473,-2.7474]},{"header":{"parameterUnit":"m.s-1","parameterCategory":1,"la1":30.2991,"la2":30.254,"lo1":-89.0895,"lo2":-89.0444,"dy":0.0017,"dx":0.0017,"nx":28,"ny":28,"refTime":"2023-11-10T03:00:00:Z","depth":0,"parameterNumber":3,"parameterNumberName":"V-component_of_WINDS"},"data":[0,0,0,0,0,0,0,0,0,0,0,0,0,0,0,0,0,0,0,0,0,0,0,0,0,0,0,0,0,0,0,0,0,0,0,0,0,0,0,0,0,0,0,0,0,0,0,0,0,0,0,0,0,0,0,0,0,0,2.05,2.0501,0,2.0531,2.0532,2.0532,2.0558,2.0558,2.0559,2.0559,2.0587,2.0587,2.0588,0,0,0,0,0,0,0,0,0,0,0,0,0,2.0461,2.0462,2.05,2.0501,2.0501,2.0531,2.0532,2.0532,2.0558,2.0558,2.0559,2.0559,2.0587,2.0587,2.0588,0,0,0,0,0,0,0,0,0,0,0,0,0,2.0484,2.0462,2.05,2.0518,2.0519,2.0531,2.0532,2.0532,2.0558,2.0558,2.0559,2.0559,2.0587,2.0587,2.0588,2.0584,0,0,2.059,2.0591,0,0,0,0,0,0,0,0,2.0482,2.0485,2.0515,2.0516,2.0519,2.0541,2.0528,2.0549,2.0558,2.0543,2.0559,2.0559,2.0571,2.0573,2.0578,2.0585,2.0586,2.059,2.0591,2.0591,2.0591,0,0,0,0,0,0,0,2.0481,2.0484,2.0512,2.0515,2.0517,2.0523,2.0527,2.0533,2.0554,2.0544,2.0546,2.055,2.0572,2.0577,2.0579,2.0587,2.059,2.0591,2.0591,2.0592,2.0595,2.0594,0,0,0,0,0,0,2.0477,2.0482,2.0511,2.0513,2.0501,2.0524,2.0528,2.0533,2.0554,2.0558,2.055,2.0551,2.0576,2.0578,2.058,2.0578,2.0591,2.0592,2.0592,2.0595,2.0594,2.0594,0,0,0,0,0,0,2.0476,2.0479,2.051,2.0499,2.0503,2.0524,2.053,2.0534,2.0539,2.0558,2.0562,2.0551,2.0576,2.0579,2.0584,2.0579,2.0592,2.0593,2.0595,2.0595,2.0594,2.0573,0,0,0,0,0,0,2.0475,2.0479,2.0478,2.0498,2.0503,2.0514,2.053,2.0534,2.0541,2.0543,2.056,2.0564,2.0577,2.0582,2.0584,2.058,2.0593,2.0596,2.0595,2.0594,2.0574,2.0572,2.057,0,0,0,0,0,2.0473,2.0469,2.0477,2.0481,2.0503,2.0513,2.0516,2.0533,2.054,2.0539,2.0552,2.0563,2.0579,2.0583,2.0585,2.0581,2.0596,2.0595,2.0594,2.0575,2.0572,2.057,0,0,0,0,0,0,2.0445,2.0472,2.0482,2.0484,2.0497,2.0518,2.0517,2.0529,2.0538,2.054,2.0558,2.0562,2.0565,2.0574,2.0577,2.058,2.0589,2.0589,2.0574,2.0571,2.0569,2.0567,2.0594,0,0,0,0,0,2.044,2.0447,2.047,2.047,2.0476,2.0495,2.05,2.0512,2.0525,2.053,2.0543,2.0555,2.0563,2.0567,2.0576,2.0576,2.058,2.0575,2.0572,2.057,2.057,2.0572,2.057,2.0591,2.0591,2.0591,0,0,2.0428,2.0443,2.0446,2.0465,2.0476,2.0483,2.0499,2.0505,2.0511,2.0531,2.0537,2.0547,2.0561,2.0564,2.0566,2.0571,2.0565,2.0569,2.0568,2.0568,2.0571,2.0569,2.0567,2.0591,2.0591,2.0591,0,0,2.041,2.0422,2.0424,2.0436,2.0453,2.0467,2.0467,2.0487,2.0495,2.0502,2.0518,2.0524,2.0537,2.0547,2.0554,2.0542,2.0553,2.0544,2.0533,2.0535,2.0533,2.0532,2.0529,2.0527,2.0544,2.0544,2.0544,0,2.0392,2.0404,2.0424,2.043,2.0438,2.0459,2.0461,2.0471,2.0489,2.0494,2.05,2.0519,2.0529,2.0536,2.0533,2.0538,2.0539,2.0542,2.0532,2.0531,2.053,2.0527,2.0526,2.0543,2.0543,2.0543,2.0543,0,2.0383,2.0391,2.0391,2.041,2.0418,2.0422,2.0442,2.0448,2.046,2.0472,2.048,2.0494,2.0506,2.0508,2.0519,2.0517,2.052,2.0529,2.0539,2.0526,2.0524,2.0523,2.0541,2.0541,2.0542,2.0542,0,0,2.0346,2.0379,2.0378,2.0389,2.041,2.0417,2.0422,2.0436,2.0441,2.0453,2.0459,2.0471,2.048,2.0488,2.05,2.0501,2.0493,2.051,2.0511,2.0507,2.0493,2.0486,2.0485,2.0501,2.0501,2.05,2.0492,0,2.0332,2.0345,2.0364,2.037,2.0378,2.0399,2.0404,2.0418,2.043,2.0439,2.0452,2.0461,2.0472,2.0477,2.048,2.0493,2.049,2.0494,2.0506,2.0506,2.0502,2.0484,2.0476,2.0467,2.0491,2.0491,2.0491,0,2.0317,2.0331,2.0338,2.0362,2.0366,2.037,2.0386,2.0394,2.041,2.0419,2.0429,2.0443,2.045,2.046,2.047,2.0472,2.0478,2.0486,2.0486,2.0487,2.0498,2.0485,2.0465,2.0464,2.0489,2.049,2.049,0,2.0291,2.0311,2.0319,2.0327,2.0354,2.0357,2.0368,2.0385,2.0393,2.0406,2.0411,2.0424,2.0431,2.0441,2.0458,2.0464,2.0467,2.0478,2.0475,2.0474,2.0474,2.0474,2.0455,2.0477,2.0477,2.0477,2.0477,0,2.0274,2.0278,2.0308,2.0313,2.0319,2.034,2.0345,2.0358,2.0373,2.0381,2.0399,2.0405,2.0427,2.0436,2.045,2.0457,2.0459,2.0467,2.0471,2.0466,2.0465,2.047,2.0471,2.0477,2.0477,2.0477,2.0477,0,2.0246,2.0266,2.0276,2.0302,2.0309,2.0312,2.0333,2.0339,2.0353,2.0363,2.0366,2.0388,2.04,2.0419,2.0435,2.0444,2.0449,2.0455,2.0444,2.0446,2.0443,2.0443,2.0427,2.0426,2.0448,2.0448,2.0447,0,2.0233,2.0237,2.0264,2.0272,2.0283,2.0294,2.0303,2.0324,2.0333,2.0353,2.0356,2.037,2.0382,2.04,2.0417,2.043,2.0437,2.043,2.0438,2.0434,2.0437,2.0437,2.0438,2.0428,2.0427,2.0427,2.0427,0,2.021,2.022,2.0233,2.025,2.0261,2.0275,2.0289,2.0294,2.0319,2.0327,2.0341,2.035,2.0369,2.0382,2.0399,2.0409,2.0422,2.0424,2.0425,2.042,2.0414,2.0418,2.0439,2.0424,2.0425,2.0425,2.0425,2.0425,2.0189,2.0195,2.0216,2.023,2.0244,2.0258,2.0265,2.0281,2.0293,2.0311,2.0323,2.0336,2.0354,2.0377,2.0387,2.0398,2.0403,2.0403,2.0403,2.0403,2.0402,2.0412,2.04,2.0401,2.0401,2.0401,2.0401,0,2.0168,2.0183,2.0196,2.0217,2.0228,2.0242,2.0259,2.0267,2.0279,2.0295,2.0308,2.0324,2.0338,2.0357,2.0372,2.0377,2.0383,2.038,2.038,2.0382,2.0395,2.0394,2.0375,2.0375,2.0375,2.0375,2.0375,2.0375,2.0158,2.0168,2.0181,2.0199,2.0214,2.0228,2.0237,2.025,2.0264,2.0281,2.0294,2.0307,2.0324,2.0342,2.0355,2.036,2.0365,2.036,2.0367,2.0379,2.0381,2.0383,2.0383,2.0361,2.0361,2.0354,2.0354,2.0354]}]]